Location: Cz?stochówka
(50.8142°N, 19.0915°E)
Time: 14:51:03
(UTC+00:00)

COSMO-SKYMED 1 - Visible Passes

Search period start: 11 April 2026 00:00
Search period end: 21 April 2026 00:00
Orbit: 576 x 578 km, 97.9° (Epoch: 11 April)

Date Brightness Start Highest point End Pass type
(mag) Time Alt. Az. Time Alt. Az. Time Alt. Az.
11 Apr 5.5 18:42:29 10° NNW 18:45:31 20° WNW 18:48:33 10° WSW visible
12 Apr 5.6 18:46:30 10° NNW 18:49:25 19° WNW 18:52:18 10° WSW visible
13 Apr 6.3 02:32:08 10° ENE 02:33:10 11° NE 02:34:11 10° NE visible
13 Apr 5.7 18:50:33 10° NNW 18:53:18 18° WNW 18:56:03 10° WSW visible
14 Apr 6.2 02:35:36 10° ENE 02:37:02 12° NE 02:38:29 10° NE visible
14 Apr 5.8 18:54:36 10° NNW 18:57:11 16° WNW 18:59:45 10° W visible
15 Apr 6.1 02:39:09 10° E 02:40:55 13° NE 02:42:40 10° NNE visible
15 Apr 5.9 18:58:39 10° NNW 19:01:04 15° WNW 19:03:28 10° W visible
16 Apr 6.0 02:42:46 10° E 02:44:47 13° ENE 02:46:48 10° NNE visible
16 Apr 5.9 19:02:44 10° NNW 19:04:56 14° WNW 19:07:08 10° W visible
17 Apr 5.9 02:46:25 10° E 02:48:39 14° ENE 02:50:53 10° NNE visible
17 Apr 6.0 19:06:49 10° NNW 19:08:48 13° WNW 19:10:47 10° W visible
18 Apr 5.9 02:50:05 10° E 02:52:31 15° ENE 02:54:57 10° NNE visible
18 Apr 6.1 19:10:56 10° NNW 19:12:40 12° NW 19:14:22 10° W visible
19 Apr 5.8 02:53:46 10° E 02:56:22 17° ENE 02:59:00 10° NNE visible
19 Apr 6.2 19:15:07 10° NW 19:16:31 12° NW 19:17:53 10° WNW visible
20 Apr 5.8 02:57:28 10° ESE 03:00:14 18° ENE 03:03:01 10° NNE visible
20 Apr 6.3 19:19:24 10° NW 19:20:21 11° NW 19:21:18 10° WNW visible
